KPF211 LQSA-EBBR

Flight info

Callsign KPF211
Flight time N/A
Altitude 40000
Route BOSNA DCT OKSIG DCT GORPA DCT DOL DCT VEKEN DCT ERKIR DCT ETAGO DCT SUNEG DCT LIRSU L608 BATTY
Aircraft CL60/M-SBDE1E2E3FGHIJ1J4J5J7M3RWXYZ/LB1V1D1

Departure

Time 2026-05-08 06:52
Airport Sarajevo International Airport (LQSA)

Arrival

Time N/A
Airport Brussels Airport (EBBR)
Time Latitude Longitude Altitude Speed Heading
2026-05-08 06:18 43.82470 18.33784 1668 ft 0 kts 297°
2026-05-08 06:48 43.82470 18.33783 1670 ft 1 kts 296°
2026-05-08 06:48 43.82458 18.33757 1670 ft 6 kts 177°
2026-05-08 06:48 43.82404 18.33779 1670 ft 9 kts 136°
2026-05-08 06:48 43.82374 18.33854 1672 ft 9 kts 115°
2026-05-08 06:49 43.82345 18.33938 1675 ft 10 kts 115°
2026-05-08 06:49 43.82310 18.34028 1678 ft 10 kts 122°
2026-05-08 06:49 43.82270 18.34126 1681 ft 11 kts 117°
2026-05-08 06:49 43.82231 18.34233 1685 ft 13 kts 116°
2026-05-08 06:50 43.82188 18.34353 1688 ft 14 kts 116°
2026-05-08 06:50 43.82152 18.34447 1690 ft 10 kts 118°
2026-05-08 06:50 43.82114 18.34546 1693 ft 12 kts 118°
2026-05-08 06:50 43.82044 18.34623 1695 ft 14 kts 169°
2026-05-08 06:51 43.81949 18.34583 1695 ft 9 kts 206°
2026-05-08 06:51 43.81940 18.34530 1695 ft 5 kts 297°
2026-05-08 06:51 43.81945 18.34516 1695 ft 0 kts 296°
2026-05-08 06:51 43.81947 18.34511 1695 ft 8 kts 296°
2026-05-08 06:52 43.82130 18.34037 1682 ft 109 kts 297°
2026-05-08 06:52 43.82607 18.32763 1912 ft 174 kts 297°
2026-05-08 06:52 43.83232 18.31266 2879 ft 190 kts 307°
2026-05-08 06:52 43.84168 18.30156 3738 ft 165 kts 340°
2026-05-08 06:53 43.85233 18.29766 4148 ft 166 kts 348°
2026-05-08 06:53 43.86484 18.29390 4828 ft 204 kts 349°
2026-05-08 06:53 43.87951 18.28950 5753 ft 232 kts 348°
2026-05-08 06:53 43.89587 18.28359 6690 ft 254 kts 343°
2026-05-08 06:54 43.91312 18.27582 7461 ft 264 kts 341°
2026-05-08 06:54 43.93052 18.26771 8198 ft 264 kts 341°
2026-05-08 06:54 43.94785 18.25969 8954 ft 265 kts 342°
2026-05-08 06:54 43.96187 18.25560 9556 ft 271 kts 353°
2026-05-08 06:55 43.98124 18.25303 10249 ft 291 kts 354°
2026-05-08 06:55 44.00175 18.25040 10857 ft 299 kts 354°
2026-05-08 06:55 44.02257 18.24769 11476 ft 299 kts 354°
2026-05-08 06:55 44.04332 18.24496 12113 ft 300 kts 353°
2026-05-08 06:56 44.06348 18.23764 12762 ft 302 kts 334°
2026-05-08 06:56 44.08052 18.22032 13395 ft 317 kts 313°
2026-05-08 06:56 44.09582 18.19646 14021 ft 343 kts 310°
2026-05-08 06:56 44.11204 18.17077 14629 ft 362 kts 310°
2026-05-08 06:57 44.12908 18.14383 15290 ft 370 kts 310°
2026-05-08 06:57 44.14599 18.11709 16040 ft 373 kts 310°
2026-05-08 06:57 44.16307 18.09005 16780 ft 378 kts 310°
2026-05-08 06:57 44.18043 18.06255 17541 ft 382 kts 310°
2026-05-08 06:58 44.19812 18.03450 18299 ft 386 kts 310°
2026-05-08 06:58 44.21573 18.00657 19044 ft 390 kts 309°
2026-05-08 06:58 44.23373 17.97799 19797 ft 394 kts 309°
2026-05-08 06:58 44.25183 17.94922 20555 ft 398 kts 309°
2026-05-08 06:59 44.27029 17.91985 21324 ft 402 kts 309°
2026-05-08 06:59 44.28873 17.89048 22076 ft 407 kts 308°
2026-05-08 06:59 44.30742 17.86067 22831 ft 411 kts 308°
2026-05-08 06:59 44.32632 17.83051 23602 ft 415 kts 308°
2026-05-08 07:00 44.34527 17.80023 24365 ft 418 kts 308°
2026-05-08 07:00 44.36430 17.76980 25121 ft 421 kts 308°
2026-05-08 07:00 44.38359 17.73893 25878 ft 424 kts 308°
2026-05-08 07:00 44.40301 17.70779 26636 ft 425 kts 308°
2026-05-08 07:01 44.42344 17.67500 27304 ft 429 kts 308°
2026-05-08 07:01 44.44302 17.64354 27834 ft 433 kts 308°
2026-05-08 07:01 44.46282 17.61168 28347 ft 438 kts 308°
2026-05-08 07:01 44.48286 17.57941 28861 ft 441 kts 308°
2026-05-08 07:02 44.50321 17.54660 29359 ft 444 kts 308°
2026-05-08 07:02 44.52352 17.51382 29873 ft 446 kts 308°
2026-05-08 07:02 44.54371 17.48122 30508 ft 444 kts 308°
2026-05-08 07:02 44.56377 17.44879 31230 ft 440 kts 307°
2026-05-08 07:03 44.58364 17.41664 31981 ft 435 kts 307°
2026-05-08 07:03 44.60328 17.38484 32679 ft 430 kts 307°
2026-05-08 07:03 44.62299 17.35286 33337 ft 427 kts 307°
2026-05-08 07:03 44.64238 17.32137 33951 ft 423 kts 306°
2026-05-08 07:04 44.66160 17.29013 34523 ft 421 kts 306°
2026-05-08 07:04 44.68076 17.25893 34967 ft 419 kts 306°
2026-05-08 07:04 44.69975 17.22797 35320 ft 419 kts 306°
2026-05-08 07:04 44.71890 17.19671 35634 ft 420 kts 306°
2026-05-08 07:05 44.73795 17.16557 35927 ft 421 kts 306°
2026-05-08 07:05 44.75707 17.13428 36228 ft 422 kts 306°
2026-05-08 07:05 44.77621 17.10294 36527 ft 423 kts 306°
2026-05-08 07:05 44.79532 17.07162 36893 ft 423 kts 306°
2026-05-08 07:06 44.81453 17.04009 37316 ft 422 kts 305°
2026-05-08 07:06 44.83372 17.00856 37646 ft 422 kts 305°
2026-05-08 07:06 44.85247 16.97693 37985 ft 420 kts 304°
2026-05-08 07:06 44.87099 16.94515 38261 ft 420 kts 304°
2026-05-08 07:07 44.88946 16.91341 38546 ft 420 kts 304°
2026-05-08 07:07 44.90800 16.88153 38786 ft 420 kts 304°
2026-05-08 07:07 44.92656 16.84959 38999 ft 421 kts 304°
2026-05-08 07:07 44.94513 16.81758 39210 ft 422 kts 304°
2026-05-08 07:08 44.96358 16.78575 39417 ft 422 kts 304°
2026-05-08 07:08 44.98237 16.75330 39600 ft 423 kts 304°
2026-05-08 07:08 45.00095 16.72120 39769 ft 423 kts 304°
2026-05-08 07:08 45.01942 16.68922 39893 ft 423 kts 304°
2026-05-08 07:09 45.03814 16.65680 40024 ft 424 kts 304°
2026-05-08 07:09 45.05690 16.62425 40037 ft 428 kts 304°
2026-05-08 07:09 45.09469 16.55856 40044 ft 435 kts 304°
2026-05-08 07:10 45.13309 16.49170 40051 ft 437 kts 304°
2026-05-08 07:10 45.17151 16.42467 40045 ft 437 kts 304°
2026-05-08 07:11 45.20986 16.35758 40061 ft 437 kts 304°
2026-05-08 07:11 45.24833 16.29015 40056 ft 437 kts 304°
2026-05-08 07:12 45.28636 16.22331 40064 ft 437 kts 304°
2026-05-08 07:12 45.32443 16.15624 40062 ft 438 kts 304°
2026-05-08 07:13 45.36257 16.08890 40071 ft 437 kts 304°
2026-05-08 07:13 45.40064 16.02152 40074 ft 437 kts 304°
2026-05-08 07:14 45.43883 15.95375 40082 ft 438 kts 304°
2026-05-08 07:14 45.47697 15.88593 40082 ft 438 kts 304°
2026-05-08 07:15 45.51495 15.81822 40079 ft 437 kts 304°
2026-05-08 07:15 45.55288 15.75044 40075 ft 437 kts 304°
2026-05-08 07:16 45.59078 15.68255 40082 ft 437 kts 304°
2026-05-08 07:16 45.62875 15.61436 40065 ft 438 kts 304°
2026-05-08 07:17 45.66649 15.54643 40059 ft 437 kts 304°
2026-05-08 07:17 45.70428 15.47823 40067 ft 438 kts 304°
2026-05-08 07:18 45.74204 15.40994 40070 ft 437 kts 304°
2026-05-08 07:18 45.77987 15.34129 40071 ft 437 kts 303°
2026-05-08 07:19 45.81737 15.27260 40065 ft 437 kts 303°
2026-05-08 07:19 45.85475 15.20396 40069 ft 438 kts 303°
2026-05-08 07:20 45.89222 15.13501 40064 ft 438 kts 303°
2026-05-08 07:20 45.92967 15.06591 40074 ft 438 kts 303°
2026-05-08 07:21 45.96717 14.99655 40068 ft 439 kts 303°
2026-05-08 07:21 46.00456 14.92723 40072 ft 438 kts 304°
2026-05-08 07:22 46.04174 14.85812 40070 ft 438 kts 304°
2026-05-08 07:22 46.07876 14.78860 40076 ft 435 kts 301°
2026-05-08 07:23 46.10783 14.71240 40073 ft 431 kts 293°
2026-05-08 07:23 46.13471 14.63557 40080 ft 432 kts 293°
2026-05-08 07:24 46.16177 14.55806 40073 ft 432 kts 294°
2026-05-08 07:24 46.18895 14.47997 40074 ft 433 kts 293°
2026-05-08 07:25 46.21594 14.40226 40074 ft 434 kts 293°
2026-05-08 07:26 46.25639 14.28533 40070 ft 434 kts 292°
2026-05-08 07:26 46.28340 14.20697 40077 ft 434 kts 293°
2026-05-08 07:27 46.31023 14.12891 40075 ft 434 kts 293°
2026-05-08 07:27 46.33709 14.05056 40072 ft 433 kts 292°
2026-05-08 07:28 46.36372 13.97263 40081 ft 433 kts 293°
2026-05-08 07:28 46.39055 13.89388 40066 ft 433 kts 293°
2026-05-08 07:29 46.41723 13.81534 40057 ft 435 kts 293°
2026-05-08 07:29 46.44380 13.73688 40070 ft 436 kts 293°
2026-05-08 07:30 46.47046 13.65792 40063 ft 436 kts 293°
2026-05-08 07:30 46.49726 13.57830 40089 ft 435 kts 293°
2026-05-08 07:31 46.52380 13.49923 40091 ft 435 kts 293°
2026-05-08 07:31 46.55058 13.42021 40079 ft 437 kts 296°
2026-05-08 07:32 46.58648 13.34877 40101 ft 444 kts 310°
2026-05-08 07:32 46.63149 13.28630 40095 ft 446 kts 312°
2026-05-08 07:33 46.67685 13.22392 40109 ft 445 kts 313°
2026-05-08 07:33 46.72172 13.16205 40105 ft 446 kts 312°
2026-05-08 07:34 46.76716 13.09923 40121 ft 446 kts 313°
2026-05-08 07:34 46.81206 13.03698 40125 ft 447 kts 313°
2026-05-08 07:35 46.85699 12.97455 40108 ft 447 kts 313°
2026-05-08 07:35 46.90228 12.91145 40058 ft 447 kts 313°
2026-05-08 07:36 46.94708 12.84888 40075 ft 446 kts 313°
2026-05-08 07:36 46.99202 12.78595 40084 ft 447 kts 313°
2026-05-08 07:37 47.03684 12.72304 40079 ft 447 kts 313°
2026-05-08 07:37 47.08187 12.65966 40081 ft 447 kts 313°
2026-05-08 07:38 47.12681 12.59628 40116 ft 447 kts 313°
2026-05-08 07:38 47.17170 12.53280 40119 ft 447 kts 313°
2026-05-08 07:39 47.21662 12.46910 40116 ft 448 kts 313°
2026-05-08 07:39 47.26143 12.40543 40113 ft 448 kts 313°
2026-05-08 07:40 47.30598 12.34195 40111 ft 448 kts 312°
2026-05-08 07:40 47.35137 12.27711 40104 ft 448 kts 312°
2026-05-08 07:41 47.39597 12.21324 40099 ft 448 kts 312°
2026-05-08 07:41 47.44064 12.14912 40095 ft 449 kts 312°
2026-05-08 07:42 47.48574 12.08421 40090 ft 449 kts 312°
2026-05-08 07:42 47.53038 12.01955 40086 ft 448 kts 310°
2026-05-08 07:43 47.56826 11.94733 40085 ft 444 kts 303°
2026-05-08 07:43 47.60445 11.87287 40085 ft 445 kts 302°
2026-05-08 07:44 47.64076 11.79801 40087 ft 445 kts 303°
2026-05-08 07:44 47.67674 11.72367 40075 ft 445 kts 303°
2026-05-08 07:45 47.71285 11.64888 40076 ft 446 kts 303°
2026-05-08 07:45 47.74883 11.57416 40074 ft 446 kts 303°
2026-05-08 07:46 47.78503 11.49879 40069 ft 446 kts 303°
2026-05-08 07:46 47.82104 11.42363 40066 ft 446 kts 303°
2026-05-08 07:47 47.85680 11.34877 40070 ft 446 kts 302°
2026-05-08 07:47 47.89281 11.27321 40065 ft 446 kts 302°
2026-05-08 07:48 47.92833 11.19847 40063 ft 446 kts 302°
2026-05-08 07:48 47.96413 11.12292 40059 ft 446 kts 302°
2026-05-08 07:49 47.99995 11.04712 40060 ft 446 kts 302°
2026-05-08 07:49 48.03578 10.97111 40063 ft 447 kts 302°
2026-05-08 07:50 48.07149 10.89512 40063 ft 447 kts 302°
2026-05-08 07:50 48.10728 10.81876 40064 ft 447 kts 302°
2026-05-08 07:51 48.14312 10.74209 40066 ft 447 kts 302°
2026-05-08 07:51 48.17865 10.66586 40066 ft 447 kts 302°
2026-05-08 07:52 48.21411 10.58957 40065 ft 447 kts 302°
2026-05-08 07:52 48.24964 10.51292 40060 ft 447 kts 302°
2026-05-08 07:53 48.28501 10.43638 40059 ft 447 kts 302°
2026-05-08 07:53 48.32046 10.35946 40059 ft 447 kts 302°
2026-05-08 07:54 48.35579 10.28257 40059 ft 448 kts 302°
2026-05-08 07:54 48.39117 10.20537 40060 ft 447 kts 302°
2026-05-08 07:55 48.42649 10.12810 40059 ft 447 kts 302°
2026-05-08 07:55 48.46164 10.05095 40058 ft 447 kts 302°
2026-05-08 07:56 48.49662 9.97396 40058 ft 447 kts 302°
2026-05-08 07:56 48.53169 9.89655 40052 ft 447 kts 302°
2026-05-08 07:57 48.56675 9.81895 40057 ft 447 kts 302°
2026-05-08 07:57 48.60176 9.74124 40054 ft 448 kts 302°
2026-05-08 07:58 48.63661 9.66365 40051 ft 448 kts 302°
2026-05-08 07:58 48.67165 9.58543 40055 ft 448 kts 302°
2026-05-08 07:59 48.70634 9.50774 40061 ft 448 kts 302°
2026-05-08 07:59 48.74712 9.43586 40068 ft 452 kts 316°
2026-05-08 08:00 48.79551 9.37494 40068 ft 453 kts 318°
2026-05-08 08:00 48.84432 9.31373 40072 ft 454 kts 317°
2026-05-08 08:01 48.89326 9.25220 40072 ft 454 kts 317°
2026-05-08 08:01 48.94170 9.19111 40069 ft 454 kts 317°
2026-05-08 08:02 48.99036 9.12959 40067 ft 453 kts 317°
2026-05-08 08:02 49.03883 9.06814 40067 ft 453 kts 317°
2026-05-08 08:03 49.08711 9.00676 40072 ft 453 kts 317°
2026-05-08 08:03 49.13577 8.94474 40074 ft 453 kts 317°
2026-05-08 08:04 49.18389 8.88218 40075 ft 452 kts 314°
2026-05-08 08:04 49.22282 8.80792 40085 ft 447 kts 301°
2026-05-08 08:05 49.25708 8.72763 40080 ft 448 kts 301°
2026-05-08 08:05 49.29120 8.64755 40083 ft 448 kts 301°
2026-05-08 08:06 49.32524 8.56742 40085 ft 448 kts 301°
2026-05-08 08:06 49.35916 8.48731 40089 ft 448 kts 301°
2026-05-08 08:07 49.39316 8.40678 40097 ft 448 kts 301°
2026-05-08 08:07 49.42706 8.32623 40085 ft 449 kts 300°
2026-05-08 08:08 49.46118 8.24493 40087 ft 449 kts 300°
2026-05-08 08:08 49.49488 8.16437 40086 ft 449 kts 300°
2026-05-08 08:09 49.52872 8.08322 40083 ft 449 kts 300°
2026-05-08 08:09 49.56240 8.00221 40076 ft 448 kts 300°
2026-05-08 08:10 49.59628 7.92046 40072 ft 448 kts 300°
2026-05-08 08:10 49.62987 7.83918 40076 ft 449 kts 300°
2026-05-08 08:11 49.66333 7.75794 40072 ft 449 kts 300°
2026-05-08 08:11 49.69684 7.67634 40072 ft 449 kts 300°
2026-05-08 08:12 49.73027 7.59470 40079 ft 449 kts 300°
2026-05-08 08:12 49.76363 7.51296 40080 ft 450 kts 300°
2026-05-08 08:13 49.79699 7.43096 40082 ft 449 kts 300°
2026-05-08 08:13 49.82995 7.34969 40079 ft 449 kts 299°
2026-05-08 08:14 49.86356 7.26656 40075 ft 449 kts 299°
2026-05-08 08:14 49.89650 7.18484 40078 ft 448 kts 299°
2026-05-08 08:15 49.92954 7.10262 40081 ft 449 kts 299°
2026-05-08 08:15 49.96258 7.02011 40081 ft 449 kts 299°
2026-05-08 08:16 49.99570 6.93716 40079 ft 450 kts 300°
2026-05-08 08:16 50.02846 6.85484 40073 ft 450 kts 299°
2026-05-08 08:17 50.06149 6.77160 40075 ft 450 kts 299°
2026-05-08 08:17 50.09436 6.68849 40073 ft 449 kts 299°
2026-05-08 08:18 50.12693 6.60589 40075 ft 449 kts 299°
2026-05-08 08:18 50.15960 6.52273 40002 ft 451 kts 299°
2026-05-08 08:18 50.17691 6.48106 39532 ft 460 kts 304°
2026-05-08 08:19 50.19746 6.44260 38967 ft 460 kts 312°
2026-05-08 08:19 50.22118 6.40862 38345 ft 459 kts 318°
2026-05-08 08:19 50.24591 6.37671 37724 ft 457 kts 318°
2026-05-08 08:19 50.26902 6.34682 37152 ft 455 kts 317°
2026-05-08 08:20 50.29357 6.31499 36548 ft 455 kts 317°
2026-05-08 08:20 50.31771 6.28363 36015 ft 455 kts 317°
2026-05-08 08:20 50.34210 6.25191 35413 ft 461 kts 317°
2026-05-08 08:20 50.36691 6.21958 34618 ft 465 kts 317°
2026-05-08 08:21 50.39173 6.18721 34104 ft 454 kts 317°
2026-05-08 08:21 50.41594 6.15562 33482 ft 453 kts 317°
2026-05-08 08:21 50.44019 6.12389 32914 ft 455 kts 317°
2026-05-08 08:21 50.46471 6.09178 32301 ft 456 kts 317°
2026-05-08 08:22 50.48930 6.05953 31692 ft 458 kts 318°
2026-05-08 08:22 50.51367 6.02751 31085 ft 459 kts 318°
2026-05-08 08:22 50.53820 5.99524 30457 ft 460 kts 318°
2026-05-08 08:22 50.56273 5.96294 29868 ft 457 kts 318°
2026-05-08 08:23 50.58715 5.93072 29265 ft 454 kts 318°
2026-05-08 08:23 50.61158 5.89847 28658 ft 450 kts 318°
2026-05-08 08:23 50.63509 5.86685 28068 ft 445 kts 315°
2026-05-08 08:23 50.65492 5.82926 27465 ft 437 kts 300°
2026-05-08 08:24 50.66907 5.78756 26868 ft 432 kts 295°
2026-05-08 08:24 50.68273 5.74493 26290 ft 428 kts 295°
2026-05-08 08:24 50.69618 5.70312 25728 ft 425 kts 295°
2026-05-08 08:24 50.70955 5.66149 25154 ft 422 kts 295°
2026-05-08 08:25 50.72286 5.61996 24595 ft 419 kts 295°
2026-05-08 08:25 50.73589 5.57925 24051 ft 415 kts 295°
2026-05-08 08:25 50.74884 5.53870 23497 ft 412 kts 295°
2026-05-08 08:25 50.76173 5.49830 22958 ft 408 kts 295°
2026-05-08 08:26 50.77458 5.45794 22402 ft 406 kts 295°